RYR552 EPKK-LGKO

Flight info

Callsign RYR552
Flight time 2h 28m
Altitude 23000
Route REGTO T195 RAZEC/N0362F130 B7 KSC/N0415F230 N133 KEKED/N0457F360 DCT PARAK/N0451F370 DCT NISVA Y505 NIKTI UN127 LMO UL618 MES/N0414F230 N139 LURUS UL995 KOPAR
Aircraft B738/M-SDE2E3FGHIRWXY/LB1

Departure

Time 2026-05-06 13:45
Airport Kraków John Paul II International Airport (EPKK)

Arrival

Time 2026-05-06 16:14
Airport Kos International Airport "Ippokratis" (LGKO)
Time Latitude Longitude Altitude Speed Heading
2026-05-06 13:25 50.07413 19.80467 799 ft 0 kts 107°
2026-05-06 13:39 50.07413 19.80466 799 ft 2 kts 107°
2026-05-06 13:40 50.07420 19.80431 799 ft 4 kts 110°
2026-05-06 13:40 50.07428 19.80400 799 ft 4 kts 125°
2026-05-06 13:40 50.07445 19.80378 799 ft 0 kts 168°
2026-05-06 13:40 50.07443 19.80346 799 ft 0 kts 46°
2026-05-06 13:42 50.07444 19.80346 799 ft 1 kts 46°
2026-05-06 13:42 50.07459 19.80366 799 ft 8 kts 33°
2026-05-06 13:42 50.07531 19.80411 799 ft 13 kts 20°
2026-05-06 13:43 50.07621 19.80412 799 ft 13 kts 348°
2026-05-06 13:43 50.07708 19.80383 799 ft 13 kts 348°
2026-05-06 13:43 50.07793 19.80354 799 ft 12 kts 348°
2026-05-06 13:43 50.07875 19.80326 799 ft 12 kts 348°
2026-05-06 13:44 50.07956 19.80299 799 ft 12 kts 348°
2026-05-06 13:44 50.08012 19.80207 799 ft 14 kts 276°
2026-05-06 13:44 50.07967 19.79875 799 ft 66 kts 257°
2026-05-06 13:44 50.07815 19.78775 802 ft 138 kts 257°
2026-05-06 13:45 50.07579 19.77115 1247 ft 164 kts 256°
2026-05-06 13:45 50.07076 19.73536 2831 ft 183 kts 256°
2026-05-06 13:45 50.06776 19.71471 3287 ft 202 kts 256°
2026-05-06 13:46 50.06460 19.69316 3867 ft 206 kts 256°
2026-05-06 13:46 50.06030 19.67202 4505 ft 210 kts 238°
2026-05-06 13:46 50.05004 19.65603 5213 ft 213 kts 213°
2026-05-06 13:46 50.03593 19.64863 6010 ft 218 kts 192°
2026-05-06 13:47 50.02085 19.64970 6933 ft 219 kts 173°
2026-05-06 13:47 50.00571 19.65477 7689 ft 225 kts 171°
2026-05-06 13:47 49.99034 19.66010 8538 ft 227 kts 171°
2026-05-06 13:47 49.97494 19.66545 9400 ft 227 kts 171°
2026-05-06 13:48 49.95940 19.67080 10180 ft 230 kts 171°
2026-05-06 13:48 49.94360 19.67618 10888 ft 235 kts 171°
2026-05-06 13:48 49.92744 19.68165 11597 ft 240 kts 171°
2026-05-06 13:48 49.91105 19.68718 12375 ft 243 kts 172°
2026-05-06 13:49 49.89442 19.69279 13188 ft 245 kts 172°
2026-05-06 13:49 49.87827 19.70217 13924 ft 258 kts 147°
2026-05-06 13:49 49.86562 19.72254 14668 ft 266 kts 133°
2026-05-06 13:49 49.85438 19.74555 15420 ft 270 kts 132°
2026-05-06 13:50 49.84319 19.76917 16188 ft 273 kts 131°
2026-05-06 13:50 49.83193 19.79294 16972 ft 275 kts 131°
2026-05-06 13:50 49.82034 19.81722 17494 ft 289 kts 131°
2026-05-06 13:50 49.80777 19.84326 17665 ft 314 kts 131°
2026-05-06 13:51 49.79432 19.87106 17860 ft 338 kts 131°
2026-05-06 13:51 49.77975 19.90114 18038 ft 361 kts 131°
2026-05-06 13:51 49.76438 19.93288 18362 ft 375 kts 130°
2026-05-06 13:51 49.74862 19.96545 19017 ft 379 kts 130°
2026-05-06 13:52 49.73274 19.99818 19764 ft 380 kts 130°
2026-05-06 13:52 49.71682 20.03085 20494 ft 383 kts 130°
2026-05-06 13:52 49.70068 20.06386 21155 ft 386 kts 130°
2026-05-06 13:52 49.68442 20.09709 21821 ft 390 kts 130°
2026-05-06 13:53 49.66797 20.13068 22478 ft 393 kts 130°
2026-05-06 13:53 49.65148 20.16436 23142 ft 396 kts 130°
2026-05-06 13:53 49.63474 20.19850 23749 ft 398 kts 130°
2026-05-06 13:53 49.61789 20.23280 24041 ft 409 kts 130°
2026-05-06 13:54 49.60038 20.26835 24141 ft 424 kts 130°
2026-05-06 13:54 49.58225 20.30513 24297 ft 435 kts 130°
2026-05-06 13:54 49.56380 20.34259 24634 ft 440 kts 130°
2026-05-06 13:54 49.54526 20.38023 25102 ft 442 kts 130°
2026-05-06 13:55 49.52662 20.41800 25568 ft 444 kts 130°
2026-05-06 13:55 49.50779 20.45610 25972 ft 448 kts 130°
2026-05-06 13:55 49.48883 20.49438 26386 ft 451 kts 130°
2026-05-06 13:55 49.46980 20.53274 26912 ft 451 kts 130°
2026-05-06 13:56 49.45115 20.57029 27388 ft 452 kts 130°
2026-05-06 13:56 49.43163 20.60954 27886 ft 454 kts 130°
2026-05-06 13:56 49.41267 20.64760 28402 ft 453 kts 130°
2026-05-06 13:56 49.39285 20.68505 28959 ft 451 kts 136°
2026-05-06 13:57 49.37102 20.71941 29482 ft 449 kts 139°
2026-05-06 13:57 49.34824 20.75232 29987 ft 449 kts 140°
2026-05-06 13:57 49.32538 20.78474 30461 ft 447 kts 140°
2026-05-06 13:57 49.30267 20.81726 31029 ft 444 kts 140°
2026-05-06 13:58 49.28041 20.84967 31605 ft 441 kts 140°
2026-05-06 13:58 49.25839 20.88211 32094 ft 439 kts 139°
2026-05-06 13:58 49.23645 20.91464 32486 ft 440 kts 139°
2026-05-06 13:58 49.21449 20.94725 32973 ft 438 kts 139°
2026-05-06 13:59 49.19273 20.97958 33565 ft 434 kts 139°
2026-05-06 13:59 49.17109 21.01165 34067 ft 431 kts 139°
2026-05-06 13:59 49.14954 21.04347 34390 ft 432 kts 139°
2026-05-06 13:59 49.12753 21.07485 34629 ft 432 kts 146°
2026-05-06 14:00 49.10168 21.09658 35085 ft 418 kts 164°
2026-05-06 14:00 49.07412 21.10880 35201 ft 420 kts 171°
2026-05-06 14:00 49.01618 21.12800 35328 ft 433 kts 171°
2026-05-06 14:01 48.95655 21.14952 35438 ft 446 kts 170°
2026-05-06 14:01 48.89543 21.17170 35636 ft 455 kts 171°
2026-05-06 14:02 48.86458 21.18281 35836 ft 456 kts 171°
2026-05-06 14:02 48.83360 21.19396 35888 ft 458 kts 171°
2026-05-06 14:02 48.77173 21.21621 35915 ft 455 kts 171°
2026-05-06 14:03 48.71045 21.23818 35918 ft 453 kts 171°
2026-05-06 14:03 48.64903 21.25810 35905 ft 449 kts 174°
2026-05-06 14:04 48.58744 21.27380 35901 ft 448 kts 174°
2026-05-06 14:04 48.52584 21.28200 35909 ft 441 kts 188°
2026-05-06 14:05 48.46692 21.26300 35908 ft 435 kts 202°
2026-05-06 14:05 48.40981 21.23210 35901 ft 437 kts 203°
2026-05-06 14:06 48.35241 21.20093 35908 ft 439 kts 203°
2026-05-06 14:06 48.29466 21.17011 35902 ft 441 kts 203°
2026-05-06 14:07 48.23680 21.13959 35903 ft 441 kts 203°
2026-05-06 14:07 48.17890 21.10920 35903 ft 440 kts 203°
2026-05-06 14:08 48.12147 21.07914 35898 ft 437 kts 203°
2026-05-06 14:08 48.06425 21.04924 35913 ft 434 kts 203°
2026-05-06 14:09 48.00727 21.01952 35901 ft 433 kts 203°
2026-05-06 14:09 47.95048 20.98997 35912 ft 432 kts 203°
2026-05-06 14:10 47.89353 20.96040 35912 ft 433 kts 203°
2026-05-06 14:10 47.83607 20.93061 35925 ft 439 kts 203°
2026-05-06 14:11 47.77921 20.90123 35908 ft 441 kts 203°
2026-05-06 14:11 47.72135 20.87143 35908 ft 438 kts 203°
2026-05-06 14:12 47.66392 20.84192 35913 ft 436 kts 203°
2026-05-06 14:12 47.60655 20.81249 35905 ft 435 kts 203°
2026-05-06 14:13 47.54942 20.78324 35915 ft 434 kts 204°
2026-05-06 14:13 47.49229 20.75406 35914 ft 434 kts 204°
2026-05-06 14:14 47.43515 20.72494 35920 ft 434 kts 204°
2026-05-06 14:14 47.37841 20.69609 35910 ft 435 kts 204°
2026-05-06 14:15 47.32072 20.66683 35928 ft 435 kts 204°
2026-05-06 14:15 47.26372 20.63799 35923 ft 436 kts 204°
2026-05-06 14:16 47.20624 20.60897 35918 ft 437 kts 204°
2026-05-06 14:16 47.14868 20.57998 35915 ft 437 kts 204°
2026-05-06 14:17 47.09101 20.55100 35920 ft 437 kts 204°
2026-05-06 14:17 47.03377 20.52230 35923 ft 438 kts 204°
2026-05-06 14:18 46.97610 20.49345 35921 ft 438 kts 204°
2026-05-06 14:18 46.91843 20.46467 35923 ft 438 kts 204°
2026-05-06 14:19 46.86081 20.43598 35917 ft 438 kts 204°
2026-05-06 14:19 46.80302 20.40727 35913 ft 438 kts 204°
2026-05-06 14:20 46.74542 20.37871 35923 ft 437 kts 204°
2026-05-06 14:20 46.68770 20.35016 35917 ft 437 kts 204°
2026-05-06 14:21 46.63002 20.32170 35926 ft 437 kts 204°
2026-05-06 14:21 46.57238 20.29332 35923 ft 437 kts 204°
2026-05-06 14:22 46.51517 20.26521 35925 ft 437 kts 204°
2026-05-06 14:22 46.45749 20.23693 35930 ft 437 kts 204°
2026-05-06 14:23 46.39987 20.20874 35919 ft 437 kts 204°
2026-05-06 14:23 46.34221 20.18061 35923 ft 437 kts 204°
2026-05-06 14:24 46.28485 20.15267 35925 ft 437 kts 204°
2026-05-06 14:24 46.22716 20.12463 36293 ft 436 kts 204°
2026-05-06 14:25 46.19825 20.11169 36748 ft 436 kts 196°
2026-05-06 14:25 46.16765 20.10930 36905 ft 450 kts 179°
2026-05-06 14:25 46.13679 20.11957 36917 ft 462 kts 163°
2026-05-06 14:25 46.10821 20.14144 36940 ft 467 kts 153°
2026-05-06 14:26 46.05347 20.19155 36923 ft 464 kts 152°
2026-05-06 14:26 46.00847 20.23332 36913 ft 462 kts 152°
2026-05-06 14:27 45.95421 20.28283 36918 ft 461 kts 153°
2026-05-06 14:27 45.89991 20.33163 36929 ft 460 kts 153°
2026-05-06 14:28 45.84552 20.38019 36929 ft 461 kts 153°
2026-05-06 14:28 45.79093 20.42880 36931 ft 462 kts 153°
2026-05-06 14:29 45.73618 20.47747 36925 ft 464 kts 153°
2026-05-06 14:29 45.68152 20.52597 36933 ft 466 kts 153°
2026-05-06 14:30 45.62633 20.57482 36934 ft 468 kts 153°
2026-05-06 14:30 45.57090 20.62378 36932 ft 469 kts 153°
2026-05-06 14:31 45.51528 20.67279 36932 ft 470 kts 153°
2026-05-06 14:31 45.45953 20.72180 36923 ft 470 kts 153°
2026-05-06 14:32 45.40382 20.77066 36937 ft 470 kts 153°
2026-05-06 14:32 45.34806 20.81945 36936 ft 470 kts 153°
2026-05-06 14:33 45.29266 20.86780 36936 ft 470 kts 153°
2026-05-06 14:33 45.23661 20.91662 36929 ft 469 kts 152°
2026-05-06 14:34 45.18099 20.96494 36939 ft 468 kts 152°
2026-05-06 14:34 45.12579 21.01279 36938 ft 468 kts 152°
2026-05-06 14:35 45.07025 21.06082 36938 ft 467 kts 152°
2026-05-06 14:35 45.01478 21.10867 36939 ft 467 kts 152°
2026-05-06 14:36 44.95932 21.15641 36926 ft 467 kts 152°
2026-05-06 14:36 44.90384 21.20406 36941 ft 467 kts 152°
2026-05-06 14:37 44.84830 21.25165 36940 ft 467 kts 152°
2026-05-06 14:37 44.79269 21.29919 36944 ft 468 kts 152°
2026-05-06 14:38 44.73738 21.34637 36939 ft 469 kts 152°
2026-05-06 14:38 44.68139 21.39401 36946 ft 470 kts 152°
2026-05-06 14:39 44.62536 21.44159 36953 ft 471 kts 152°
2026-05-06 14:39 44.56913 21.48922 36945 ft 472 kts 152°
2026-05-06 14:40 44.51284 21.53681 36950 ft 472 kts 152°
2026-05-06 14:40 44.45680 21.58406 36946 ft 473 kts 152°
2026-05-06 14:41 44.40041 21.63152 36955 ft 473 kts 152°
2026-05-06 14:41 44.34396 21.67891 36958 ft 473 kts 152°
2026-05-06 14:42 44.28753 21.72617 36960 ft 473 kts 152°
2026-05-06 14:42 44.23099 21.77341 36951 ft 473 kts 152°
2026-05-06 14:43 44.17449 21.82052 36964 ft 473 kts 152°
2026-05-06 14:43 44.11797 21.86754 36958 ft 473 kts 152°
2026-05-06 14:44 44.06145 21.91446 36961 ft 473 kts 152°
2026-05-06 14:45 43.97709 21.98429 36958 ft 472 kts 152°
2026-05-06 14:45 43.92057 22.03095 36960 ft 472 kts 152°
2026-05-06 14:46 43.86406 22.07748 36960 ft 472 kts 152°
2026-05-06 14:46 43.80757 22.12389 36962 ft 472 kts 152°
2026-05-06 14:47 43.75105 22.17024 36956 ft 472 kts 152°
2026-05-06 14:47 43.69456 22.21645 36956 ft 471 kts 152°
2026-05-06 14:48 43.63821 22.26245 36958 ft 471 kts 152°
2026-05-06 14:48 43.58169 22.30849 36968 ft 471 kts 152°
2026-05-06 14:49 43.52550 22.35415 36949 ft 472 kts 152°
2026-05-06 14:49 43.46892 22.40004 36965 ft 472 kts 152°
2026-05-06 14:50 43.41226 22.44588 36969 ft 472 kts 152°
2026-05-06 14:50 43.35555 22.49166 36965 ft 472 kts 152°
2026-05-06 14:51 43.29878 22.53740 36947 ft 473 kts 152°
2026-05-06 14:51 43.24206 22.58300 36985 ft 473 kts 152°
2026-05-06 14:52 43.18532 22.62851 36981 ft 473 kts 152°
2026-05-06 14:52 43.12841 22.67407 36982 ft 473 kts 152°
2026-05-06 14:53 43.07153 22.71950 36976 ft 473 kts 152°
2026-05-06 14:53 43.01458 22.76490 36979 ft 473 kts 152°
2026-05-06 14:54 42.95846 22.81105 36991 ft 475 kts 147°
2026-05-06 14:54 42.90538 22.86478 36993 ft 476 kts 144°
2026-05-06 14:55 42.85284 22.91995 36996 ft 476 kts 144°
2026-05-06 14:55 42.80004 22.97446 36992 ft 476 kts 144°
2026-05-06 14:56 42.74698 23.02849 36997 ft 476 kts 145°
2026-05-06 14:56 42.69379 23.08234 36997 ft 477 kts 145°
2026-05-06 14:57 42.64084 23.13588 37014 ft 478 kts 145°
2026-05-06 14:57 42.58739 23.18982 37003 ft 479 kts 144°
2026-05-06 14:58 42.53390 23.24371 36999 ft 479 kts 144°
2026-05-06 14:58 42.48029 23.29760 37007 ft 480 kts 144°
2026-05-06 14:59 42.42668 23.35137 37016 ft 480 kts 144°
2026-05-06 14:59 42.37301 23.40510 37023 ft 480 kts 144°
2026-05-06 15:00 42.31925 23.45879 37034 ft 480 kts 144°
2026-05-06 15:00 42.26463 23.51071 37037 ft 480 kts 148°
2026-05-06 15:01 42.20826 23.55889 37046 ft 480 kts 149°
2026-05-06 15:01 42.15177 23.60659 37042 ft 481 kts 149°
2026-05-06 15:02 42.09536 23.65475 37032 ft 480 kts 149°
2026-05-06 15:02 42.03900 23.70310 37046 ft 479 kts 149°
2026-05-06 15:03 41.98279 23.75129 37061 ft 480 kts 149°
2026-05-06 15:03 41.92643 23.79948 37056 ft 480 kts 149°
2026-05-06 15:04 41.86991 23.84768 37037 ft 481 kts 149°
2026-05-06 15:04 41.81334 23.89581 37040 ft 481 kts 149°
2026-05-06 15:05 41.75667 23.94394 37045 ft 482 kts 149°
2026-05-06 15:05 41.69999 23.99197 37042 ft 482 kts 149°
2026-05-06 15:06 41.64351 24.03974 37042 ft 482 kts 149°
2026-05-06 15:06 41.58677 24.08763 37034 ft 482 kts 149°
2026-05-06 15:07 41.52991 24.13576 37035 ft 483 kts 148°
2026-05-06 15:07 41.47400 24.18557 37038 ft 483 kts 147°
2026-05-06 15:08 41.41820 24.23586 37029 ft 483 kts 147°
2026-05-06 15:08 41.36230 24.28576 37035 ft 483 kts 147°
2026-05-06 15:09 41.30672 24.33511 37051 ft 483 kts 147°
2026-05-06 15:09 41.25025 24.38513 37035 ft 485 kts 147°
2026-05-06 15:10 41.19398 24.43457 37046 ft 486 kts 149°
2026-05-06 15:10 41.13415 24.47533 37040 ft 486 kts 156°
2026-05-06 15:11 41.07267 24.51317 37045 ft 487 kts 156°
2026-05-06 15:11 41.02174 24.54527 37052 ft 488 kts 156°
2026-05-06 15:12 40.96012 24.58481 37046 ft 489 kts 156°
2026-05-06 15:12 40.89931 24.62370 37041 ft 489 kts 156°
2026-05-06 15:13 40.83786 24.66226 37047 ft 488 kts 156°
2026-05-06 15:13 40.77653 24.70062 37046 ft 487 kts 156°
2026-05-06 15:14 40.71563 24.73984 37045 ft 487 kts 155°
2026-05-06 15:14 40.65469 24.77917 37042 ft 487 kts 156°
2026-05-06 15:15 40.59366 24.81745 37051 ft 486 kts 156°
2026-05-06 15:15 40.53264 24.85582 37052 ft 485 kts 156°
2026-05-06 15:16 40.47167 24.89407 37052 ft 485 kts 156°
2026-05-06 15:16 40.41113 24.93199 37048 ft 485 kts 156°
2026-05-06 15:17 40.35029 24.97004 37056 ft 484 kts 156°
2026-05-06 15:17 40.28940 25.00804 37059 ft 484 kts 156°
2026-05-06 15:18 40.22850 25.04597 37052 ft 485 kts 156°
2026-05-06 15:18 40.16749 25.08389 37055 ft 486 kts 156°
2026-05-06 15:19 40.10631 25.12184 37062 ft 487 kts 156°
2026-05-06 15:19 40.04504 25.15978 37047 ft 488 kts 156°
2026-05-06 15:20 39.98401 25.19750 37050 ft 489 kts 156°
2026-05-06 15:20 39.92203 25.23556 37049 ft 489 kts 158°
2026-05-06 15:21 39.85850 25.26465 37055 ft 487 kts 165°
2026-05-06 15:21 39.79338 25.29003 37048 ft 487 kts 166°
2026-05-06 15:22 39.72841 25.31562 37046 ft 487 kts 165°
2026-05-06 15:22 39.66358 25.34183 37061 ft 487 kts 165°
2026-05-06 15:23 39.59889 25.36823 37065 ft 487 kts 165°
2026-05-06 15:23 39.53431 25.39455 37067 ft 487 kts 165°
2026-05-06 15:24 39.46964 25.42082 37070 ft 487 kts 165°
2026-05-06 15:24 39.40499 25.44701 37071 ft 486 kts 165°
2026-05-06 15:25 39.34082 25.47296 37073 ft 486 kts 165°
2026-05-06 15:25 39.27620 25.49903 37065 ft 486 kts 165°
2026-05-06 15:26 39.21158 25.52506 37067 ft 486 kts 165°
2026-05-06 15:26 39.14708 25.55099 37066 ft 486 kts 165°
2026-05-06 15:27 39.08253 25.57689 37075 ft 485 kts 165°
2026-05-06 15:27 39.01797 25.60275 37077 ft 485 kts 165°
2026-05-06 15:28 38.95386 25.62837 37058 ft 485 kts 165°
2026-05-06 15:28 38.88945 25.65407 37060 ft 485 kts 165°
2026-05-06 15:29 38.82486 25.67979 37074 ft 485 kts 166°
2026-05-06 15:29 38.76023 25.70548 37075 ft 486 kts 166°
2026-05-06 15:30 38.69562 25.73112 37074 ft 487 kts 166°
2026-05-06 15:30 38.63094 25.75675 37078 ft 487 kts 166°
2026-05-06 15:31 38.56601 25.78240 37074 ft 487 kts 166°
2026-05-06 15:31 38.50108 25.80801 37076 ft 488 kts 166°
2026-05-06 15:32 38.40415 25.84617 37076 ft 488 kts 166°
2026-05-06 15:32 38.33921 25.87169 37071 ft 488 kts 166°
2026-05-06 15:33 38.27441 25.89718 37079 ft 487 kts 166°
2026-05-06 15:33 38.20980 25.92382 37085 ft 488 kts 163°
2026-05-06 15:34 38.14613 25.95332 37082 ft 487 kts 162°
2026-05-06 15:34 38.08239 25.98292 36462 ft 495 kts 163°
2026-05-06 15:35 38.04991 25.99778 35882 ft 495 kts 163°
2026-05-06 15:35 38.01760 26.01246 35206 ft 492 kts 163°
2026-05-06 15:35 37.98541 26.02702 34540 ft 491 kts 163°
2026-05-06 15:35 37.95316 26.04157 33822 ft 493 kts 163°
2026-05-06 15:36 37.92077 26.05617 32839 ft 497 kts 163°
2026-05-06 15:36 37.88811 26.07088 32036 ft 498 kts 163°
2026-05-06 15:36 37.85550 26.08558 31252 ft 498 kts 163°
2026-05-06 15:36 37.82288 26.10029 30454 ft 497 kts 162°
2026-05-06 15:37 37.79021 26.11500 29509 ft 499 kts 162°
2026-05-06 15:37 37.75754 26.12969 28712 ft 496 kts 162°
2026-05-06 15:37 37.72529 26.14420 28093 ft 489 kts 162°
2026-05-06 15:37 37.69344 26.15856 27445 ft 483 kts 162°
2026-05-06 15:38 37.66203 26.17274 26828 ft 478 kts 162°
2026-05-06 15:38 37.63084 26.18681 26220 ft 472 kts 162°
2026-05-06 15:38 37.60008 26.20066 25638 ft 468 kts 162°
2026-05-06 15:38 37.56956 26.21441 25044 ft 464 kts 162°
2026-05-06 15:39 37.53921 26.22804 24432 ft 462 kts 162°
2026-05-06 15:39 37.50904 26.24159 23837 ft 458 kts 162°
2026-05-06 15:39 37.47900 26.25506 23170 ft 458 kts 162°
2026-05-06 15:39 37.44915 26.26845 22538 ft 454 kts 161°
2026-05-06 15:40 37.41955 26.28172 21918 ft 448 kts 161°
2026-05-06 15:40 37.39036 26.29479 21324 ft 443 kts 162°
2026-05-06 15:40 37.36152 26.30769 20752 ft 437 kts 161°
2026-05-06 15:40 37.33305 26.32042 20181 ft 432 kts 161°
2026-05-06 15:41 37.30524 26.33284 19631 ft 427 kts 161°
2026-05-06 15:41 37.27731 26.34531 19075 ft 423 kts 161°
2026-05-06 15:41 37.24970 26.35762 18504 ft 419 kts 161°
2026-05-06 15:41 37.22237 26.36980 17882 ft 415 kts 161°
2026-05-06 15:42 37.19531 26.38184 17350 ft 409 kts 161°
2026-05-06 15:42 37.16886 26.39356 17091 ft 401 kts 161°
2026-05-06 15:42 37.14255 26.40519 16564 ft 398 kts 161°
2026-05-06 15:42 37.11660 26.41665 16036 ft 394 kts 161°
2026-05-06 15:43 37.09090 26.42800 15625 ft 386 kts 161°
2026-05-06 15:43 37.06554 26.43920 14990 ft 386 kts 161°
2026-05-06 15:43 37.04035 26.45032 14443 ft 383 kts 161°
2026-05-06 15:43 37.01531 26.46137 13916 ft 380 kts 161°
2026-05-06 15:44 36.99040 26.47236 13322 ft 377 kts 161°
2026-05-06 15:44 36.96578 26.48320 12776 ft 373 kts 161°
2026-05-06 15:44 36.94175 26.49378 12256 ft 369 kts 161°
2026-05-06 15:44 36.91795 26.50429 11746 ft 357 kts 159°
2026-05-06 15:45 36.89664 26.51907 11235 ft 347 kts 139°
2026-05-06 15:45 36.88118 26.54109 11029 ft 326 kts 121°
2026-05-06 15:45 36.87133 26.56562 10887 ft 309 kts 110°
2026-05-06 15:45 36.86326 26.59021 10762 ft 304 kts 109°
2026-05-06 15:46 36.85524 26.61472 10635 ft 307 kts 110°
2026-05-06 15:46 36.84700 26.63928 10517 ft 306 kts 110°
2026-05-06 15:46 36.83867 26.66368 10383 ft 304 kts 110°
2026-05-06 15:46 36.83005 26.68782 10250 ft 304 kts 116°
2026-05-06 15:47 36.81727 26.70872 10132 ft 305 kts 131°
2026-05-06 15:47 36.80269 26.72822 9848 ft 310 kts 131°
2026-05-06 15:47 36.78789 26.74793 9519 ft 313 kts 131°
2026-05-06 15:47 36.77310 26.76783 9196 ft 310 kts 131°
2026-05-06 15:48 36.75885 26.78718 8884 ft 307 kts 131°
2026-05-06 15:48 36.74437 26.80702 8571 ft 303 kts 130°
2026-05-06 15:48 36.73029 26.82635 8268 ft 300 kts 130°
2026-05-06 15:48 36.71651 26.84529 7971 ft 297 kts 130°
2026-05-06 15:49 36.70273 26.86422 7665 ft 288 kts 130°
2026-05-06 15:49 36.69041 26.88336 7373 ft 276 kts 116°
2026-05-06 15:49 36.68230 26.90394 7135 ft 259 kts 111°
2026-05-06 15:49 36.67493 26.92343 6869 ft 247 kts 111°
2026-05-06 15:50 36.66778 26.94188 6611 ft 235 kts 112°
2026-05-06 15:50 36.66079 26.95957 6401 ft 223 kts 112°
2026-05-06 15:50 36.65407 26.97647 6194 ft 211 kts 111°
2026-05-06 15:50 36.64777 26.99222 6088 ft 200 kts 111°
2026-05-06 15:51 36.64158 27.00777 6081 ft 199 kts 111°
2026-05-06 15:51 36.63535 27.02338 5777 ft 200 kts 111°
2026-05-06 15:51 36.62925 27.03855 5638 ft 190 kts 111°
2026-05-06 15:51 36.62343 27.05305 5481 ft 185 kts 111°
2026-05-06 15:52 36.61776 27.06716 5405 ft 185 kts 111°
2026-05-06 15:52 36.61197 27.08157 5320 ft 186 kts 111°
2026-05-06 15:52 36.60615 27.09603 5248 ft 188 kts 111°
2026-05-06 15:52 36.60026 27.11066 5150 ft 190 kts 112°
2026-05-06 15:53 36.59480 27.12529 5016 ft 185 kts 100°
2026-05-06 15:53 36.59560 27.14000 5019 ft 170 kts 66°
2026-05-06 15:53 36.59965 27.15379 4989 ft 170 kts 64°
2026-05-06 15:53 36.60426 27.16835 4513 ft 188 kts 64°
2026-05-06 15:54 36.60881 27.18300 4353 ft 181 kts 64°
2026-05-06 15:54 36.61322 27.19727 4191 ft 175 kts 64°
2026-05-06 15:54 36.61866 27.20905 4029 ft 167 kts 38°
2026-05-06 15:54 36.62883 27.21451 3992 ft 164 kts
2026-05-06 15:55 36.63647 27.21324 3967 ft 166 kts 336°
2026-05-06 15:55 36.64679 27.20577 3567 ft 179 kts 330°
2026-05-06 15:55 36.65720 27.19792 3322 ft 172 kts 330°
2026-05-06 15:55 36.67029 27.18785 3016 ft 162 kts 329°
2026-05-06 15:56 36.67662 27.18294 2904 ft 156 kts 329°
2026-05-06 15:56 36.68538 27.17588 2712 ft 149 kts 327°
2026-05-06 15:56 36.69406 27.16915 2500 ft 145 kts 329°
2026-05-06 15:56 36.70261 27.16263 2330 ft 145 kts 328°
2026-05-06 15:57 36.71106 27.15611 2141 ft 142 kts 328°
2026-05-06 15:57 36.71911 27.14987 2061 ft 134 kts 328°
2026-05-06 15:57 36.72699 27.14388 1968 ft 136 kts 329°
2026-05-06 15:57 36.73529 27.13766 1813 ft 138 kts 328°
2026-05-06 15:58 36.73734 27.13611 1753 ft 138 kts 327°
2026-05-06 15:58 36.74564 27.12956 1545 ft 135 kts 326°
2026-05-06 15:58 36.75360 27.12318 1390 ft 138 kts 326°
2026-05-06 15:58 36.76176 27.11676 1179 ft 139 kts 326°
2026-05-06 15:59 36.76993 27.11030 951 ft 139 kts 326°
2026-05-06 15:59 36.77811 27.10396 678 ft 137 kts 326°
2026-05-06 15:59 36.78604 27.09779 420 ft 130 kts 325°
2026-05-06 15:59 36.79307 27.09246 447 ft 114 kts 325°
2026-05-06 16:00 36.80106 27.08595 958 ft 162 kts 324°
2026-05-06 16:00 36.81092 27.07764 1599 ft 175 kts 325°
2026-05-06 16:00 36.81132 27.07730 1633 ft 176 kts 325°
2026-05-06 16:00 36.81858 27.07115 2271 ft 172 kts 327°
2026-05-06 16:01 36.82805 27.06326 3307 ft 167 kts 329°
2026-05-06 16:01 36.83889 27.05512 3804 ft 191 kts 330°
2026-05-06 16:01 36.85032 27.04622 3943 ft 195 kts 322°
2026-05-06 16:01 36.85699 27.03207 3976 ft 202 kts 285°
2026-05-06 16:02 36.85553 27.01413 4008 ft 215 kts 250°
2026-05-06 16:02 36.84646 26.99929 4510 ft 222 kts 224°
2026-05-06 16:02 36.83375 26.98787 4844 ft 227 kts 215°
2026-05-06 16:02 36.82017 26.97706 4974 ft 245 kts 214°
2026-05-06 16:03 36.80512 26.96515 4969 ft 262 kts 214°
2026-05-06 16:03 36.78982 26.95299 4976 ft 262 kts 214°
2026-05-06 16:03 36.77443 26.94067 4978 ft 263 kts 215°
2026-05-06 16:03 36.75908 26.92829 4981 ft 263 kts 215°
2026-05-06 16:04 36.74368 26.91581 4980 ft 264 kts 215°
2026-05-06 16:04 36.72838 26.90338 4977 ft 264 kts 215°
2026-05-06 16:04 36.71284 26.89075 4978 ft 264 kts 215°
2026-05-06 16:04 36.69747 26.87827 4972 ft 264 kts 215°
2026-05-06 16:05 36.68095 26.86844 4958 ft 265 kts 192°
2026-05-06 16:05 36.66297 26.87015 4984 ft 261 kts 159°
2026-05-06 16:05 36.64826 26.88213 4989 ft 260 kts 129°
2026-05-06 16:05 36.63957 26.90165 4973 ft 248 kts 100°
2026-05-06 16:06 36.63854 26.92196 4962 ft 223 kts 77°
2026-05-06 16:06 36.64171 26.93971 4958 ft 205 kts 70°
2026-05-06 16:06 36.64540 26.95605 4880 ft 200 kts 69°
2026-05-06 16:06 36.64933 26.97303 4502 ft 200 kts 70°
2026-05-06 16:07 36.65297 26.98904 4333 ft 187 kts 69°
2026-05-06 16:07 36.65635 27.00400 4235 ft 175 kts 69°
2026-05-06 16:07 36.65963 27.01852 4176 ft 174 kts 69°
2026-05-06 16:07 36.66290 27.03303 4103 ft 174 kts 69°
2026-05-06 16:08 36.66618 27.04766 3948 ft 177 kts 70°
2026-05-06 16:08 36.66937 27.06203 3767 ft 168 kts 70°
2026-05-06 16:08 36.67240 27.07569 3590 ft 159 kts 70°
2026-05-06 16:08 36.67533 27.08896 3443 ft 159 kts 70°
2026-05-06 16:09 36.67822 27.10201 3269 ft 155 kts 70°
2026-05-06 16:09 36.68107 27.11492 3146 ft 154 kts 69°
2026-05-06 16:09 36.68385 27.12754 3019 ft 149 kts 70°
2026-05-06 16:09 36.68659 27.14000 2985 ft 149 kts 69°
2026-05-06 16:10 36.68950 27.15255 2604 ft 161 kts 67°
2026-05-06 16:10 36.69495 27.16418 2181 ft 154 kts 43°
2026-05-06 16:10 36.70260 27.17325 1789 ft 144 kts 22°
2026-05-06 16:10 36.71138 27.17163 1542 ft 138 kts 313°
2026-05-06 16:11 36.71707 27.16218 1475 ft 136 kts 306°
2026-05-06 16:11 36.72259 27.15265 1627 ft 136 kts 307°
2026-05-06 16:11 36.72907 27.14374 1605 ft 142 kts 317°
2026-05-06 16:11 36.73676 27.13644 1614 ft 139 kts 326°
2026-05-06 16:12 36.74534 27.12958 1503 ft 157 kts 327°
2026-05-06 16:12 36.75428 27.12267 1292 ft 148 kts 327°
2026-05-06 16:12 36.75972 27.11850 1153 ft 142 kts 327°
2026-05-06 16:12 36.76814 27.11176 891 ft 146 kts 326°
2026-05-06 16:13 36.77658 27.10513 669 ft 141 kts 327°
2026-05-06 16:13 36.78496 27.09864 453 ft 136 kts 327°
2026-05-06 16:13 36.79233 27.09287 406 ft 112 kts 328°
2026-05-06 16:13 36.79752 27.08885 412 ft 68 kts 328°
2026-05-06 16:14 36.80032 27.08666 410 ft 33 kts 328°
2026-05-06 16:14 36.80207 27.08532 410 ft 26 kts 329°
2026-05-06 16:14 36.80312 27.08457 415 ft 14 kts 342°
2026-05-06 16:14 36.80357 27.08476 414 ft 6 kts 75°
2026-05-06 16:15 36.80350 27.08538 420 ft 9 kts 102°
2026-05-06 16:15 36.80336 27.08616 420 ft 9 kts 102°
2026-05-06 16:15 36.80307 27.08682 415 ft 9 kts 135°
2026-05-06 16:15 36.80256 27.08731 419 ft 10 kts 147°
2026-05-06 16:16 36.80203 27.08773 414 ft 9 kts 148°
2026-05-06 16:16 36.80141 27.08821 418 ft 11 kts 148°
2026-05-06 16:16 36.80074 27.08872 410 ft 11 kts 148°
2026-05-06 16:16 36.80043 27.08913 418 ft 6 kts 96°
2026-05-06 16:17 36.80065 27.08956 413 ft 6 kts 56°
2026-05-06 16:17 36.80074 27.08974 418 ft 0 kts 57°
2026-05-06 16:17 36.80076 27.08977 413 ft 1 kts 57°
2026-05-06 16:17 36.80077 27.08980 413 ft 0 kts 57°